Stations météo

réclame
Mon MeteoGroup
Loch Glascarnoch, Grande-Bretagne (3031): Température de l'air & dewpoint: 09.11.2018 21:00:00 - 15.11.2018 21:00:00 (GMT)Loch Glascarnoch, Grande-Bretagne (3031): Température de l'air -20cm & Température de l'air -100cm: 09.11.2018 21:00:00 - 15.11.2018 21:00:00 (GMT)Loch Glascarnoch, Grande-Bretagne (3031): Vitesse du vent & gusts: 09.11.2018 21:00:00 - 15.11.2018 21:00:00 (GMT)Loch Glascarnoch, Grande-Bretagne (3031): Direction du vent: 09.11.2018 21:00:00 - 15.11.2018 21:00:00 (GMT)Loch Glascarnoch, Grande-Bretagne (3031): reduced air pressure: 09.11.2018 21:00:00 - 15.11.2018 21:00:00 (GMT)Loch Glascarnoch, Grande-Bretagne (3031): visibility: 09.11.2018 21:00:00 - 15.11.2018 21:00:00 (GMT)Loch Glascarnoch, Grande-Bretagne (3031): Ensoleillement: 09.11.2018 21:00:00 - 15.11.2018 21:00:00 (GMT)Loch Glascarnoch, Grande-Bretagne (3031): Quantités de précipitations: 09.11.2018 21:00:00 - 15.11.2018 21:00:00 (GMT)
Date & Time tt [°C] td [°C] tt -20cm [°C] tt -100cm [°C] ff [km/h] ff [knt] fx [km/h] fx [knt] dd ppp [hPa] vv [km] sd [min] rr [mm]
15.11.2018 21:00:00 9,2 4,9 - - 37 20 68 37 SW 1011,3 40 0 0,0
15.11.2018 20:00:00 8,8 5,7 - - 35 19 65 35 WSW 1010,8 45 0 0,8
15.11.2018 19:00:00 8,6 5,4 - - 37 20 67 36 SW 1010,1 18 0 0,0
15.11.2018 18:00:00 9,0 5,7 - - 35 19 76 41 WSW 1008,8 35 0 0,6
15.11.2018 17:00:00 11,7 7,3 - - 15 8 - - SSE 1006,5 15 0 0,0
15.11.2018 16:00:00 12,3 4,6 - - 16 9 - - SSE 1006,0 50 6 0,0
15.11.2018 15:00:00 10,9 6,2 - - 28 15 46 25 SE 1006,2 40 42 0,0
15.11.2018 14:00:00 12,0 7,8 - - 35 19 46 25 SE 1005,6 50 42 0,0
15.11.2018 13:00:00 11,7 8,7 - - 29 16 - - SE 1006,6 45 0 0,0
15.11.2018 12:00:00 12,0 9,5 - - 28 15 - - SE 1007,2 50 0 0,0
15.11.2018 11:00:00 12,1 9,7 - - 29 16 48 26 SSE 1007,7 50 6 0,0
15.11.2018 10:00:00 10,4 9,8 - - 18 10 - - ESE 1008,4 50 12 0,2
15.11.2018 09:00:00 9,1 8,7 7,0 7,0 11 6 - - SE 1009,1 30 0 0,0
15.11.2018 08:00:00 9,1 8,1 - - 9 5 - - E 1009,5 19 0 0,0
15.11.2018 07:00:00 9,8 7,6 - - 16 9 - - SSW 1009,3 18 0 0,0
15.11.2018 06:00:00 10,2 7,4 - - 16 9 - - SW 1009,6 50 0 0,0
15.11.2018 05:00:00 10,1 8,1 - - 18 10 - - SW 1009,1 50 0 0,0
15.11.2018 04:00:00 11,3 9,2 - - 21 11 - - SW 1008,3 21 0 0,4
15.11.2018 03:00:00 12,0 10,6 - - 9 5 - - SSW 1007,3 7 0 0,6
15.11.2018 02:00:00 12,6 10,3 - - 9 5 - - S 1006,9 25 0 0,0
15.11.2018 01:00:00 13,8 10,1 - - 16 9 - - SSE 1006,6 40 0 0,0
15.11.2018 00:00:00 14,4 9,8 - - 21 11 - - SSW 1006,1 45 - 0,0
14.11.2018 23:00:00 12,9 10,3 - - 15 8 - - SE 1006,2 40 0 0,0
14.11.2018 22:00:00 13,3 10,0 - - 13 7 - - SE 1005,7 50 0 0,0
14.11.2018 21:00:00 13,7 9,9 - - 15 8 - - SSE 1005,3 50 0 0,0
14.11.2018 20:00:00 13,4 10,1 - - 11 6 - - S 1005,4 50 0 0,0
14.11.2018 19:00:00 13,6 10,8 - - 9 5 - - SE 1004,9 50 0 0,0
14.11.2018 18:00:00 12,9 11,4 - - 13 7 - - SE 1004,9 50 0 0,0
14.11.2018 17:00:00 12,4 11,3 - - 16 9 46 25 ESE 1004,8 14 0 0,0
14.11.2018 16:00:00 13,8 11,5 - - 34 18 63 34 SW 1004,5 50 0 0,2
14.11.2018 15:00:00 13,8 11,9 - - 31 17 57 31 SW 1004,5 6 0 0,2
14.11.2018 14:00:00 11,6 11,6 - - 11 6 - - SE 1004,4 5 0 1,0
14.11.2018 13:00:00 10,3 10,1 - - 11 6 - - E 1004,3 4,7 0 0,8
14.11.2018 12:00:00 9,9 9,4 - - 13 7 - - E 1004,2 20 0 0,6
14.11.2018 11:00:00 9,7 9,2 - - 9 5 - - E 1004,5 26 0 0,4
14.11.2018 10:00:00 9,4 8,8 - - 5 3 - - ESE 1004,5 35 0 0,2
14.11.2018 09:00:00 9,1 8,4 6,4 7,0 8 4 - - E 1004,7 50 0 0,0
14.11.2018 08:00:00 9,0 8,2 - - 9 5 - - SE 1004,8 50 0 0,0
14.11.2018 07:00:00 9,0 8,0 - - 4 2 - - ESE 1005,0 50 0 0,0
14.11.2018 06:00:00 9,0 8,0 - - 11 6 - - E 1005,0 40 0 0,0
14.11.2018 05:00:00 8,3 7,4 - - 5 3 - - ENE 1005,6 50 0 0,0
14.11.2018 04:00:00 8,7 7,7 - - 16 9 - - ESE 1005,6 50 0 0,0
14.11.2018 03:00:00 9,3 7,2 - - 11 6 - - E 1006,2 19 0 0,0
14.11.2018 02:00:00 9,4 7,3 - - 11 6 - - SE 1006,6 45 0 0,0
14.11.2018 01:00:00 7,6 6,1 - - 4 2 - - SE 1007,3 50 0 0,0
14.11.2018 00:00:00 7,4 6,4 - - 5 3 - - WNW 1007,8 50 - 0,2
13.11.2018 23:00:00 8,3 6,1 - - 13 7 - - ESE 1008,1 30 0 0,0
13.11.2018 22:00:00 7,7 5,0 - - 15 8 - - ESE 1008,3 50 0 0,0
13.11.2018 21:00:00 6,1 4,6 - - 11 6 - - ESE 1009,0 50 0 0,0
13.11.2018 20:00:00 5,3 3,5 - - 8 4 - - E 1009,5 50 0 0,0
13.11.2018 19:00:00 5,7 3,8 - - 15 8 - - ESE 1009,7 45 0 0,0
13.11.2018 18:00:00 8,3 4,1 - - 4 2 - - ESE 1010,0 50 0 0,0
13.11.2018 17:00:00 7,9 5,5 - - 11 6 - - S 1010,3 50 0 0,0
13.11.2018 16:00:00 7,7 4,6 - - 16 9 - - WSW 1009,9 18 0 0,0
13.11.2018 15:00:00 8,6 3,7 - - 11 6 - - SW 1009,7 40 0 0,0
13.11.2018 14:00:00 8,5 4,4 - - 11 6 - - WSW 1009,2 40 18 0,0
13.11.2018 13:00:00 8,7 4,6 - - 18 10 - - W 1008,8 50 18 0,0
13.11.2018 12:00:00 8,0 6,1 - - 16 9 - - W 1008,2 9 0 0,0
13.11.2018 11:00:00 7,8 7,7 - - 22 12 - - W 1007,2 28 0 0,0
13.11.2018 10:00:00 4,6 4,6 - - 2 1 - - E 1006,6 45 12 0,2
13.11.2018 09:00:00 3,4 3,4 6,2 7,0 2 1 - - S 1005,8 50 0 0,0
13.11.2018 08:00:00 2,3 2,3 - - 2 1 - - SSW 1004,6 25 0 0,0
13.11.2018 07:00:00 2,3 2,3 - - 2 1 - - NW 1003,7 50 0 0,0
13.11.2018 06:00:00 1,7 1,6 - - 2 1 - - ESE 1002,6 45 0 0,0
13.11.2018 05:00:00 1,9 1,8 - - 4 2 - - NE 1002,0 50 0 0,0
13.11.2018 04:00:00 1,2 1,1 - - 4 2 - - ESE 1001,2 45 0 0,0
13.11.2018 03:00:00 -0,1 -0,4 - - 2 1 - - SE 1000,8 30 0 0,0
13.11.2018 02:00:00 0,5 0,1 - - 2 1 - - ESE 1000,2 45 0 0,0
13.11.2018 01:00:00 1,4 0,9 - - 2 1 - - W 999,8 50 0 0,0
13.11.2018 00:00:00 2,7 2,1 - - 2 1 - - WSW 999,2 50 - 0,0
12.11.2018 23:00:00 5,3 4,6 - - 2 1 - - NNW 998,8 30 0 0,0
12.11.2018 22:00:00 6,1 5,2 - - 4 2 - - ESE 998,4 50 0 0,2
12.11.2018 21:00:00 6,6 5,5 - - 4 2 - - W 998,2 26 0 0,4
12.11.2018 20:00:00 6,7 5,2 - - 5 3 - - NNE 997,9 50 0 0,0
12.11.2018 19:00:00 6,8 5,1 - - 5 3 - - ESE 997,7 50 0 0,0
12.11.2018 18:00:00 6,8 5,4 - - 4 2 - - NE 997,5 50 0 0,0
12.11.2018 17:00:00 7,3 5,4 - - 5 3 - - E 997,2 50 0 0,0
12.11.2018 16:00:00 7,2 5,3 - - 13 7 - - E 996,7 40 0 0,0
12.11.2018 15:00:00 8,6 5,7 - - 13 7 - - SE 996,6 40 0 0,0
12.11.2018 14:00:00 8,9 5,8 - - 15 8 - - ESE 996,4 45 0 0,0
12.11.2018 13:00:00 8,8 5,7 - - 16 9 - - ESE 996,5 35 0 0,0
12.11.2018 12:00:00 8,3 5,7 - - 21 11 - - SE 996,4 35 0 0,0
12.11.2018 11:00:00 7,7 5,8 - - 18 10 - - ESE 996,4 50 0 0,0
12.11.2018 10:00:00 6,6 5,3 - - 16 9 - - E 996,2 40 0 0,0
12.11.2018 09:00:00 6,1 4,9 6,2 7,2 21 11 - - ESE 995,8 45 0 0,0
12.11.2018 08:00:00 4,8 4,5 - - 15 8 - - ESE 995,9 45 0 0,2
12.11.2018 07:00:00 2,7 2,1 - - 4 2 - - W 995,9 40 0 0,0
12.11.2018 06:00:00 4,8 4,0 - - 5 3 - - NE 995,3 50 0 0,0
12.11.2018 05:00:00 4,1 3,1 - - 2 1 - - NNE 995,1 50 0 0,0
12.11.2018 04:00:00 2,8 2,3 - - 5 3 - - W 994,9 25 0 0,0
12.11.2018 03:00:00 2,2 1,0 - - 4 2 - - W 994,8 50 0 0,0
12.11.2018 02:00:00 4,1 3,2 - - 8 4 - - NNE 994,7 50 0 0,0
12.11.2018 01:00:00 4,0 2,9 - - 13 7 - - NE 994,6 50 0 0,0
12.11.2018 00:00:00 1,7 1,3 - - 5 3 - - SE 995,0 50 - 0,0
11.11.2018 23:00:00 0,7 0,4 - - 4 2 - - WSW 994,8 50 0 0,0
11.11.2018 22:00:00 0,7 0,5 - - 4 2 - - ENE 994,6 50 0 0,0
11.11.2018 21:00:00 0,2 -0,2 - - 4 2 - - WSW 994,3 50 0 0,0
11.11.2018 20:00:00 1,2 0,5 - - 4 2 - - SSW 993,6 50 0 0,0
11.11.2018 19:00:00 3,7 2,9 - - 4 2 - - ESE 993,3 50 0 0,0
11.11.2018 18:00:00 5,0 4,1 - - 11 6 - - SE 992,3 45 0 0,0
11.11.2018 17:00:00 4,9 4,1 - - 4 2 - - S 992,1 50 0 0,2
11.11.2018 16:00:00 5,7 4,4 - - 8 4 - - ESE 991,4 45 0 0,0
11.11.2018 15:00:00 6,3 4,1 - - 4 2 - - W 990,9 45 0 0,0
11.11.2018 14:00:00 6,2 4,1 - - 8 4 - - E 990,8 50 0 0,0
11.11.2018 13:00:00 5,8 3,8 - - 5 3 - - SSE 990,9 50 30 0,0
11.11.2018 12:00:00 6,2 4,0 - - 8 4 - - SE 990,6 50 54 0,0
11.11.2018 11:00:00 2,8 2,7 - - 8 4 - - ENE 991,3 40 24 0,0
11.11.2018 10:00:00 1,4 1,3 - - 8 4 - - ESE 991,0 50 24 0,0
11.11.2018 09:00:00 -0,5 -0,6 6,7 7,4 4 2 - - E 991,1 0,1 0 0,0
11.11.2018 08:00:00 -0,9 -1,1 - - 2 1 - - WSW 990,6 0,5 0 0,0
11.11.2018 07:00:00 0,4 0,3 - - 0 0 - - N 990,0 0,2 0 0,2
11.11.2018 06:00:00 1,0 0,8 - - 4 2 - - ENE 989,6 0,3 0 0,0
11.11.2018 05:00:00 0,9 0,7 - - 5 3 - - SSW 989,4 1,0 0 0,0
11.11.2018 04:00:00 0,4 0,1 - - 2 1 - - ESE 989,3 30 0 0,0
11.11.2018 03:00:00 0,3 -0,2 - - 4 2 - - NNE 989,0 28 0 0,0
11.11.2018 02:00:00 2,4 1,8 - - 4 2 - - NE 988,8 30 0 0,0
11.11.2018 01:00:00 4,5 3,9 - - 2 1 - - S 988,5 7 0 0,2
11.11.2018 00:00:00 4,8 4,0 - - 5 3 - - ENE 988,5 12 - 0,2
10.11.2018 23:00:00 4,4 3,5 - - 4 2 - - ENE 988,9 13 0 0,6
10.11.2018 22:00:00 4,5 3,2 - - 4 2 - - NNW 988,9 23 0 0,0
10.11.2018 21:00:00 2,7 1,2 - - 4 2 - - WSW 989,2 35 0 0,0
10.11.2018 20:00:00 2,8 1,0 - - 9 5 - - NW 989,1 30 0 0,0
10.11.2018 19:00:00 3,7 0,3 - - 4 2 - - SSE 988,6 40 0 0,0
10.11.2018 18:00:00 5,8 1,0 - - 11 6 - - SSE 987,8 30 0 0,0
10.11.2018 17:00:00 4,6 1,6 - - 9 5 - - E 987,5 50 0 0,0
10.11.2018 16:00:00 6,3 2,6 - - 16 9 - - SE 986,5 35 6 0,0
10.11.2018 15:00:00 8,1 2,5 - - 5 3 - - ESE 985,4 28 0 0,0
10.11.2018 14:00:00 8,0 2,6 - - 8 4 - - WSW 984,8 40 6 0,0
10.11.2018 13:00:00 8,1 3,5 - - 11 6 - - S 984,3 9 24 0,0
10.11.2018 12:00:00 8,3 4,0 - - 5 3 - - SSE 983,9 30 6 0,0
10.11.2018 11:00:00 7,9 5,3 - - 15 8 - - E 983,2 40 12 0,0
10.11.2018 10:00:00 7,3 5,7 - - 9 5 - - NE 982,6 40 12 0,0
10.11.2018 09:00:00 6,6 5,2 6,7 7,4 8 4 - - SSW 982,3 27 0 0,2
10.11.2018 08:00:00 5,2 2,9 - - 4 2 - - S 981,6 45 0 0,0
10.11.2018 07:00:00 7,5 4,4 - - 8 4 - - NNW 980,5 19 0 0,0
10.11.2018 06:00:00 7,9 3,7 - - 21 11 - - SSE 979,6 40 0 0,0
10.11.2018 05:00:00 7,7 4,2 - - 26 14 - - SSE 978,6 50 0 0,0
10.11.2018 04:00:00 7,4 5,6 - - 24 13 - - SE 978,7 40 0 0,0
10.11.2018 03:00:00 7,7 5,4 - - 31 17 - - SE 978,3 50 0 0,2
10.11.2018 02:00:00 8,0 5,8 - - 15 8 - - SE 979,3 50 0 0,0
10.11.2018 01:00:00 6,9 5,6 - - 13 7 - - ESE 979,8 50 0 0,0
10.11.2018 00:00:00 7,2 5,7 - - 24 13 - - ESE 980,1 50 - 0,6
09.11.2018 23:00:00 7,6 5,6 - - 28 15 54 29 ESE 981,1 50 0 0,8
09.11.2018 22:00:00 8,3 5,5 - - 26 14 - - SE 982,3 50 0 0,0
09.11.2018 21:00:00 8,0 6,4 - - 26 14 61 33 ESE 983,6 40 0 0,8

tt = Température de l'air
td = dewpoint
tt -20cm = Température de l'air -20cm
tt -100cm = Température de l'air -100cm
ff = Vitesse du vent
fx = gusts
dd = Direction du vent
ppp = reduced air pressure
vv = visibility
sd = Ensoleillement
rr = Quantités de précipitations

stations d'obs. à proximité